ONEWEB-0274, 48992

Orbit data source: Space-Track

ONEWEB-0274, 48992 is a payload satellite owned by One Web (NAA) (UK) in LEO that was launched on Thu, 01 Jul 2021 UTC via a SOYUZ-2-1B launch vehicle from the Vostochny Cosmodrome (VOSTO). Payload-class satellites include a variety of spacecraft equipped with specific instruments for various scientific and technological missions. These include communications satellites like Starlink; space stations such as the ISS; scientific satellites like the Hubble; Earth observation satellites from companies like Planet Labs, Umbra, and HawkEye 360; GPS; miniature CubeSats for education and research; and military/defense satellites.

Loading next visibility...
Identifier
48992, 2021-060AB
Orbit
LEO
Country
Flag of UKUK
Related business
Manufacturer
One Web
Mission
Operational Commercial Communications
Bus & Motor
ARROW, Unknown motor
Mass
148 kg wet, ~140 kg dry
Launch date (UTC)
2021-07-01 (4 years ago)
Launch vehicle
SOYUZ-2-1B
Launch site
Vostochny Cosmodrome (VOSTO)
Object type
Payload
Rocket body
Debris
Shape & HBR
Trap Box + 2 Pan, 6.7 m
Radar Cross Section
3.464 m², Large (>1 m²)

Expand to show TLE details & history
Last TLE update: 20 hours ago

TLE from 20 hours ago
0 ONEWEB-0274
1 48992U 21060AB  25348.79588752 -.00000091  00000-0 -27042-3 0  9994
2 48992  87.9036 265.5206 0002014  80.9953 279.1406 13.16595500215365
Epoch: 2025-12-14T19:06Z
TLE epoch observation values (Epoch: 2025-12-14T19:06:04.681Z)
Latitude
-0.00002°
Longitude
-104.70258°
Altitude
1,200.407 km
Speed
7.254 km/s
True Right ascension
17h 42m 04s
True Declination
0° 00' 00"
Sunlit
Object was in daylight at epoch
Visualization orbit readout
Latitude
Unknown
Longitude
Unknown
Altitude
Unknown
Speed
Unknown
Apparent Right ascension
Unknown
Apparent Declination
Unknown
Sunlit
N/A
Visualization observer readout
Local Sidereal Time
13:23:48
Azimuth
Unknown
Elevation
Unknown
Doppler factor
Unknown
Orbital elements
Apogee altitude
1,196.388 km
Perigee altitude
1,193.337 km
Semi-major axis
7,572.999 km
Eccentricity
0.0002
Inclination
87.9036°
RAAN
265.5206°
Arg. of periapsis
80.9953°
True anomaly
279.11781°
Mean anomaly
279.1406°
Eccentric anomaly
279.12921°
Mean motion
3.29338 °/min
Orbital period
109.31 mins
BSTAR
-0.00027042
Loading maneuver chart data...
Computing Atmospheric mass density...
Loading historical data...
Loading historical data...
Loading historical data...
Loading historical data...
Loading historical data...
Loading historical data...
Loading historical data...

Documentation

Showing up to 5 results
|